Tracking 35048 objects as of 19-Aug-2026
HD Live streaming from Space Station
objects crossing your sky now

COSMOS 1375 DEB

Track COSMOS 1375 DEB now!
10-day predictions


NORAD ID: 16210
Int'l Code: 1982-055M
Launch date: June 6, 1982
Source: Commonwealth of Independent States (former USSR) (CIS)
Launch site: PLESETSK MISSILE AND SPACE COMPLEX (PKMTR)

Note: This is SATELLITE DEBRIS
Your satellite tracking list
Your tracking list is empty




NASA's NSSDC Master Catalog

Two Line Element Set (TLE):
1 16210U 82055M   26230.90220877 -.00000037  00000-0  45690-4 0  9997
2 16210  65.8336 285.1451 0020076  34.4065 138.3509 13.74589938 48532
Source of the keplerian elements: AFSPC